Total_Precipitation_Accumulation
0.00 0.00 0.00 0.00 0.00 0.00 0.00 0.00 0.00 0.00 0.00 0.00 0.00 0.00 0.01 0.01 0.02 0.03 0.06 0.14 0.24 0.29 0.42 0.53 0.53 0.48 0.47 0.48 0.53 0.64 0.89 1.18 1.54 1.55 1.35 1.31 1.23 1.17 1.09 1.02 0.99 1.03 1.09 1.25
0.00 0.00 0.00 0.00 0.00 0.00 0.00 0.00 0.00 0.00 0.00 0.00 0.00 0.00 0.01 0.03 0.05 0.07 0.08 0.10 0.21 0.38 0.54 0.68 0.71 0.65 0.69 0.91 1.12 1.27 1.45 1.85 2.04 1.92 1.86 1.84 1.85 1.65 1.63 1.56 1.41 1.23 1.17 1.28
0.00 0.00 0.00 0.00 0.00 0.00 0.00 0.00 0.00 0.00 0.00 0.00 0.00 0.00 0.02 0.06 0.11 0.16 0.19 0.21 0.25 0.32 0.38 0.46 0.51 0.56 0.66 0.85 1.04 1.31 1.68 2.04 2.20 2.24 2.29 2.23 2.23 1.97 1.89 1.79 1.64 1.45 1.33 1.29
0.00 0.00 0.00 0.00 0.00 0.00 0.00 0.00 0.00 0.00 0.00 0.00 0.00 0.00 0.01 0.03 0.07 0.13 0.20 0.26 0.32 0.40 0.44 0.46 0.49 0.52 0.59 0.66 0.88 1.21 1.54 1.83 2.03 2.19 2.25 2.30 2.29 2.16 2.12 2.00 1.71 1.46 1.32 1.33
0.00 0.00 0.00 0.00 0.00 0.00 0.00 0.00 0.00 0.00 0.00 0.00 0.00 0.00 0.00 0.02 0.05 0.09 0.16 0.25 0.34 0.42 0.48 0.54 0.61 0.69 0.75 0.84 1.02 1.22 1.41 1.64 1.80 1.89 1.94 1.99 1.93 1.89 1.85 1.70 1.48 1.32 1.27 1.25
0.00 0.01 0.01 0.00 0.00 0.00 0.00 0.00 0.00 0.00 0.00 0.00 0.01 0.01 0.01 0.02 0.04 0.08 0.17 0.26 0.35 0.46 0.56 0.66 0.72 0.79 0.86 0.99 1.15 1.31 1.42 1.60 1.71 1.62 1.51 1.51 1.52 1.55 1.48 1.38 1.27 1.17 1.10 1.06
0.00 0.01 0.01 0.01 0.01 0.01 0.00 0.02 0.05 0.03 0.01 0.01 0.01 0.02 0.04 0.05 0.05 0.10 0.21 0.28 0.33 0.40 0.48 0.56 0.69 0.88 0.97 0.97 1.00 1.19 1.44 1.69 1.69 1.52 1.34 1.26 1.25 1.30 1.30 1.25 1.19 1.14 1.05 0.99
0.00 0.01 0.02 0.03 0.04 0.05 0.04 0.06 0.16 0.13 0.04 0.02 0.01 0.02 0.09 0.09 0.14 0.19 0.24 0.27 0.28 0.27 0.24 0.24 0.27 0.35 0.40 0.42 0.42 0.50 0.62 0.80 0.87 0.85 0.82 0.82 0.86 0.95 1.01 1.06 1.07 1.08 1.04 0.96
0.01 0.01 0.02 0.05 0.09 0.09 0.14 0.15 0.12 0.24 0.21 0.17 0.04 0.03 0.11 0.14 0.20 0.26 0.27 0.24 0.22 0.19 0.17 0.17 0.20 0.22 0.25 0.28 0.34 0.42 0.49 0.54 0.55 0.53 0.50 0.51 0.55 0.65 0.74 0.81 0.87 0.93 0.93 0.89
0.01 0.01 0.01 0.02 0.06 0.08 0.10 0.15 0.29 0.45 0.43 0.30 0.12 0.10 0.24 0.33 0.34 0.37 0.39 0.35 0.27 0.22 0.21 0.23 0.25 0.28 0.35 0.45 0.54 0.59 0.59 0.54 0.48 0.46 0.45 0.41 0.45 0.48 0.53 0.58 0.60 0.64 0.66 0.69
0.01 0.01 0.02 0.08 0.11 0.11 0.10 0.16 0.30 0.43 0.45 0.42 0.34 0.27 0.23 0.31 0.44 0.58 0.60 0.49 0.36 0.29 0.26 0.27 0.26 0.30 0.35 0.43 0.50 0.57 0.58 0.55 0.52 0.49 0.48 0.47 0.45 0.44 0.44 0.47 0.47 0.50 0.51 0.53
0.01 0.02 0.03 0.05 0.04 0.03 0.07 0.15 0.28 0.44 0.48 0.49 0.45 0.34 0.17 0.19 0.30 0.41 0.44 0.36 0.28 0.25 0.24 0.24 0.23 0.24 0.28 0.34 0.41 0.45 0.47 0.51 0.51 0.46 0.46 0.47 0.44 0.40 0.40 0.40 0.39 0.40 0.42 0.45
0.01 0.02 0.02 0.02 0.05 0.06 0.09 0.10 0.17 0.27 0.36 0.39 0.42 0.37 0.22 0.25 0.33 0.38 0.40 0.36 0.29 0.26 0.26 0.24 0.23 0.24 0.26 0.31 0.39 0.42 0.43 0.47 0.49 0.46 0.46 0.43 0.44 0.44 0.40 0.34 0.31 0.30 0.32 0.37
0.00 0.00 0.01 0.02 0.03 0.03 0.05 0.06 0.10 0.19 0.30 0.26 0.20 0.22 0.25 0.30 0.36 0.37 0.35 0.31 0.25 0.22 0.23 0.22 0.24 0.26 0.26 0.26 0.28 0.33 0.41 0.49 0.46 0.42 0.41 0.39 0.37 0.37 0.39 0.35 0.30 0.27 0.26 0.28
0.00 0.00 0.01 0.01 0.01 0.02 0.02 0.03 0.06 0.11 0.14 0.20 0.17 0.22 0.30 0.33 0.31 0.30 0.29 0.26 0.22 0.20 0.18 0.17 0.17 0.17 0.19 0.21 0.24 0.28 0.29 0.37 0.43 0.44 0.41 0.39 0.38 0.35 0.32 0.29 0.26 0.23 0.20 0.19
0.00 0.00 0.01 0.06 0.09 0.09 0.08 0.07 0.08 0.10 0.10 0.13 0.17 0.23 0.26 0.25 0.25 0.26 0.26 0.24 0.22 0.17 0.14 0.12 0.11 0.11 0.11 0.13 0.17 0.21 0.21 0.26 0.33 0.34 0.33 0.35 0.35 0.34 0.33 0.27 0.22 0.19 0.16 0.15
0.00 0.01 0.01 0.06 0.15 0.15 0.14 0.08 0.11 0.14 0.14 0.22 0.35 0.36 0.28 0.27 0.24 0.21 0.18 0.15 0.12 0.09 0.08 0.07 0.06 0.06 0.07 0.06 0.09 0.15 0.19 0.20 0.23 0.26 0.28 0.30 0.33 0.35 0.33 0.25 0.20 0.17 0.14 0.14
0.01 0.01 0.02 0.06 0.15 0.16 0.10 0.03 0.04 0.07 0.08 0.10 0.17 0.18 0.18 0.20 0.17 0.13 0.10 0.08 0.06 0.04 0.03 0.03 0.02 0.02 0.02 0.03 0.06 0.12 0.19 0.22 0.24 0.29 0.33 0.33 0.32 0.34 0.34 0.27 0.22 0.19 0.17 0.16
0.00 0.00 0.01 0.04 0.07 0.08 0.03 0.02 0.04 0.08 0.09 0.05 0.08 0.09 0.08 0.07 0.07 0.08 0.04 0.02 0.01 0.01 0.01 0.01 0.01 0.01 0.02 0.04 0.08 0.14 0.18 0.24 0.29 0.33 0.36 0.36 0.34 0.34 0.33 0.31 0.29 0.27 0.26 0.21
0.00 0.00 0.01 0.02 0.05 0.08 0.04 0.04 0.06 0.08 0.19 0.10 0.07 0.05 0.03 0.02 0.06 0.08 0.02 0.00 0.00 0.00 0.00 0.01 0.01 0.03 0.06 0.08 0.12 0.19 0.23 0.28 0.32 0.31 0.31 0.29 0.31 0.34 0.36 0.36 0.36 0.34 0.32 0.27
0.00 0.00 0.01 0.02 0.05 0.04 0.01 0.03 0.05 0.14 0.24 0.05 0.01 0.01 0.01 0.02 0.05 0.03 0.01 0.00 0.00 0.00 0.01 0.02 0.03 0.07 0.13 0.12 0.17 0.22 0.23 0.27 0.28 0.30 0.29 0.29 0.30 0.33 0.36 0.41 0.41 0.41 0.38 0.34
0.00 0.01 0.02 0.03 0.08 0.08 0.01 0.01 0.03 0.05 0.04 0.02 0.02 0.02 0.02 0.01 0.01 0.01 0.01 0.01 0.01 0.02 0.02 0.03 0.06 0.11 0.17 0.18 0.23 0.25 0.25 0.26 0.29 0.32 0.31 0.31 0.33 0.27 0.28 0.40 0.44 0.47 0.46 0.41
0.00 0.01 0.02 0.04 0.05 0.02 0.01 0.01 0.02 0.02 0.03 0.03 0.02 0.02 0.01 0.01 0.01 0.01 0.01 0.02 0.02 0.03 0.04 0.06 0.09 0.13 0.16 0.21 0.31 0.37 0.36 0.35 0.36 0.40 0.41 0.41 0.39 0.37 0.38 0.43 0.45 0.47 0.47 0.45
0.00 0.01 0.02 0.03 0.02 0.01 0.02 0.02 0.02 0.02 0.02 0.01 0.01 0.01 0.01 0.01 0.02 0.02 0.03 0.02 0.03 0.03 0.04 0.06 0.09 0.14 0.19 0.24 0.32 0.40 0.42 0.40 0.41 0.45 0.46 0.50 0.51 0.49 0.48 0.53 0.55 0.52 0.51 0.51
0.00 0.01 0.03 0.06 0.04 0.02 0.03 0.02 0.01 0.00 0.00 0.00 0.01 0.01 0.01 0.02 0.02 0.02 0.02 0.02 0.03 0.03 0.04 0.06 0.11 0.17 0.20 0.24 0.31 0.35 0.39 0.43 0.47 0.48 0.46 0.50 0.56 0.61 0.60 0.58 0.58 0.58 0.59 0.54
0.01 0.03 0.05 0.07 0.06 0.05 0.04 0.02 0.01 0.01 0.01 0.01 0.01 0.01 0.01 0.02 0.02 0.02 0.02 0.03 0.04 0.05 0.07 0.09 0.13 0.17 0.21 0.24 0.30 0.35 0.41 0.45 0.52 0.52 0.49 0.49 0.51 0.55 0.55 0.56 0.46 0.42 0.46 0.42